Location: High Point State Park
(41.2941°N, 74.6906°W)
Time: 05:54:10
(UTC-04:00)

Hubble Space Telescope - Visible Passes

Search period start: 01 May 2016 00:00
Search period end: 11 May 2016 00:00
Orbit: 539 x 543 km, 28.5° (Epoch: 30 April)

Date Brightness Start Highest point End Pass type
(mag) Time Alt. Az. Time Alt. Az. Time Alt. Az.
01 May 3.0 05:19:14 10° SSW 05:21:06 13° S 05:22:58 10° SSE visible
02 May 2.9 05:09:19 10° SSW 05:11:21 13° S 05:13:23 10° SSE visible
03 May 2.8 04:59:30 10° SSW 05:01:36 14° S 05:03:43 10° SSE visible
04 May 2.8 04:50:21 12° SSW 04:51:50 14° S 04:53:58 10° SSE visible
05 May 2.7 04:41:14 13° SSW 04:42:06 13° S 04:44:07 10° SSE visible
06 May 2.8 04:32:14 13° S 04:32:20 13° S 04:34:11 10° SSE visible
07 May 3.0 04:23:19 11° S 04:23:19 11° S 04:24:06 10° SSE visible
